This is the latest recevied weather packets stored in our database for station/object EA7RX-4. If no packets are shown the sender has not sent any weather packets the latest 10 day(s).
| Time | Temp. | Humidity | Pressure | Rain* | Wind** | Luminosity | Snow |
|---|---|---|---|---|---|---|---|
| 1787418603 | 30° C | 26% | 1013.8 hPa | 0 mm | - | 195 W/m² | - |
| 1787418003 | 30° C | 27% | 1013.6 hPa | 0 mm | - | 272 W/m² | - |
| 1787417403 | 30° C | 27% | 1013.7 hPa | 0 mm | - | 286 W/m² | - |
| 1787416803 | 30° C | 27% | 1013.4 hPa | 0 mm | - | 333 W/m² | - |
| 1787416203 | 30° C | 27% | 1013.6 hPa | 0 mm | - | 362 W/m² | - |
| 1787415603 | 30° C | 27% | 1013.6 hPa | 0 mm | - | 430 W/m² | - |
| 1787415003 | 30° C | 26% | 1013.6 hPa | 0 mm | - | 468 W/m² | - |
| 1787414403 | 30° C | 26% | 1013.7 hPa | 0 mm | - | 465 W/m² | - |
| 1787413803 | 30° C | 27% | 1013.7 hPa | 0 mm | - | 530 W/m² | - |
| 1787413203 | 30° C | 26% | 1013.8 hPa | 0 mm | - | 546 W/m² | - |
| 1787412603 | 30° C | 26% | 1013.4 hPa | 0 mm | - | 598 W/m² | - |
| 1787412003 | 29.44° C | 28% | 1013.4 hPa | 0 mm | - | 619 W/m² | - |
| 1787411403 | 29.44° C | 29% | 1013.9 hPa | 0 mm | - | 678 W/m² | - |
| 1787410803 | 30° C | 28% | 1013.8 hPa | 0 mm | - | 673 W/m² | - |
| 1787410203 | 29.44° C | 30% | 1013.7 hPa | 0 mm | - | 672 W/m² | - |
| 1787409603 | 28.89° C | 32% | 1013.8 hPa | 0 mm | - | 314 W/m² | - |
| 1787409003 | 28.89° C | 31% | 1014 hPa | 0 mm | - | 179 W/m² | - |
| 1787408403 | 29.44° C | 31% | 1014 hPa | 0 mm | - | 813 W/m² | - |
| 1787407803 | 28.89° C | 31% | 1013.9 hPa | 0 mm | - | 849 W/m² | - |
| 1787407203 | 28.33° C | 33% | 1014 hPa | 0 mm | - | 215 W/m² | - |
| 1787406603 | 27.78° C | 34% | 1014.2 hPa | 0 mm | - | 922 W/m² | - |
| 1787406003 | 28.89° C | 33% | 1014.3 hPa | 0 mm | - | 434 W/m² | - |
| 1787405403 | 28.33° C | 33% | 1014.4 hPa | 0 mm | - | 253 W/m² | - |
| 1787404803 | 28.33° C | 34% | 1014.2 hPa | 0 mm | - | 233 W/m² | - |
| 1787404203 | 28.33° C | 35% | 1014.4 hPa | 0 mm | - | 953 W/m² | - |
* Rain latest hour (hover to see other rain measurements)
** Current wind speed in m/s (hover to see current wind gust speed)